Showing default

CONNECTA T1.2, 55012

Orbit data source: Space-Track

CONNECTA T1.2, 55012 is a payload satellite owned by Plan-S (TR) in SSO that was launched on Tue, 03 Jan 2023 UTC via an FALCON 9 launch vehicle from the Air Force Eastern Test Range (AFETR). Payload-class satellites include a variety of spacecraft equipped with specific instruments for various scientific and technological missions. These include communications satellites like Starlink; space stations such as the ISS; scientific satellites like the Hubble; Earth observation satellites from companies like Planet Labs, Umbra, and HawkEye 360; GPS; miniature CubeSats for education and research; and military/defense satellites.

Loading next visibility...
Identifier
55012, 2023-001D
Orbit
SSO
Country
Flag of TRTR / TURK
Related business
Manufacturer
Plan-S
Mission
Operational Commercial Communications
Bus & Motor
CUBESAT 3U, Unknown motor
Mass
4 kg wet, 4 kg dry
Launch date (UTC)
2023-01-03 (3 years ago)
Launch vehicle
FALCON 9
Launch site
Air Force Eastern Test Range (AFETR)
Object type
Payload
Rocket body
Debris
Shape & HBR
Box, 1.2 m
Radar Cross Section
0.035 m², Medium (>0.1 m² and < 1m²)

Expand to show TLE details & history
Last TLE update: 9 hours ago

TLE from 9 hours ago
0 CONNECTA T1.2
1 55012U 23001D   26166.94479539  .00034048  00000-0  59352-3 0  9996
2 55012  97.3274 237.6131 0006643 106.5105 253.6877 15.50637527192356
Epoch: 2026-06-15T22:40Z
TLE epoch observation values (Epoch: 2026-06-15T22:40:30.321Z)
Latitude
-0.00006°
Longitude
-6.73714°
Altitude
419.268 km
Speed
7.659 km/s
True Right ascension
15h 50m 27s
True Declination
0° 00' 00"
Sunlit
Object was in full shadow at epoch
Visualization orbit readout
Latitude
Unknown
Longitude
Unknown
Altitude
Unknown
Speed
Unknown
Apparent Right ascension
Unknown
Apparent Declination
Unknown
Sunlit
N/A
Visualization observer readout
Local Sidereal Time
17:58:44
Azimuth
Unknown
Elevation
Unknown
Doppler factor
Unknown
Orbital elements
Apogee altitude
416.296 km
Perigee altitude
407.275 km
Semi-major axis
6,789.922 km
Eccentricity
0.00066
Inclination
97.3274°
RAAN
237.6131°
Arg. of periapsis
106.5105°
True anomaly
253.61466°
Mean anomaly
253.6877°
Eccentric anomaly
253.65118°
Mean motion
3.87923 °/min
Orbital period
92.8 mins
BSTAR
0.00059352
Loading maneuver chart data...
Computing Atmospheric mass density...

Documentation

Showing up to 5 results
|